Torna al catalogo

STARLINK-37030

AttivoComunicazioniSSO
NORAD 68220·PAYLOAD·🇺🇸 United States

Lanciato Mar 17, 2026 da Vandenberg Space Force Base

Loading…

Prossimi Passaggi (prossime 24 ore)

TLE

AggiornatoSource: CelesTrak SupGP

Epoca: Sep 14, 2026, 21:39 UTC

1 68220C 26053P   26257.90256944  .00010206  00000+0  31741-3 0  2579
2 68220  97.2848 131.7674 0001549  97.2740 356.0048 15.33374016    15

Traccia STARLINK-37030 in tempo reale con AllMySat

Download on the App Store